Lapse_Rate
4.8 4.6 4.6 4.7 5.0 5.2 5.1 5.0 5.0 5.2 5.1 5.1 5.1 5.0 5.3 5.5 5.3 5.6 5.8 5.6 5.7 5.7 5.9 6.1 6.3 6.1 6.1 6.3 6.5 6.4 6.5 6.6 6.7 6.6 6.6 6.8 6.7 6.6 6.5 6.4 6.2 6.0 5.8 5.6 5.5 5.5 5.6 5.5 5.4
4.3 4.3 4.6 4.7 5.1 5.6 5.2 5.1 5.0 5.2 5.6 5.4 5.7 5.7 5.6 5.5 5.7 5.9 5.7 5.6 5.8 5.9 6.0 6.2 6.4 6.1 6.0 6.2 6.3 6.4 6.5 6.5 6.4 6.6 6.7 6.9 6.9 6.8 6.5 6.3 6.2 6.0 5.8 5.5 5.4 5.4 5.4 5.6 5.7
4.4 4.7 5.0 5.1 5.2 5.9 4.9 4.8 4.7 5.3 5.6 5.5 5.9 5.4 5.6 5.6 5.6 5.8 5.8 5.9 6.0 6.0 6.1 6.2 6.3 6.0 6.1 6.1 6.3 6.4 6.4 6.3 6.0 6.2 6.6 6.7 6.7 6.7 6.4 6.2 6.1 6.0 5.9 5.6 5.4 5.4 5.3 5.4 5.5
4.9 5.3 5.2 5.2 5.4 5.5 5.2 4.9 4.8 5.2 5.7 5.9 5.5 5.8 5.7 5.6 5.8 5.8 5.8 6.0 6.2 6.1 6.1 6.1 6.0 6.1 6.1 6.2 6.3 6.3 6.4 6.3 6.0 6.1 6.4 6.5 6.6 6.6 6.5 6.3 6.3 6.1 6.0 6.0 5.7 5.3 5.1 5.1 5.2
5.2 5.3 5.2 5.3 5.8 5.5 4.9 4.9 4.9 5.5 6.1 5.8 5.6 5.8 6.0 5.8 5.8 5.6 5.8 6.0 6.1 6.1 6.0 5.9 6.0 6.0 6.1 6.0 6.2 6.3 6.3 6.2 6.2 6.2 6.3 6.4 6.5 6.5 6.5 6.3 6.3 6.2 6.0 6.0 5.9 5.6 5.1 4.9 4.9
4.9 5.3 5.6 5.6 5.5 5.5 5.0 5.0 5.0 5.4 6.0 5.7 5.6 5.7 6.0 5.9 5.8 5.7 5.8 6.0 6.1 6.1 5.9 5.9 5.9 6.0 6.1 6.0 6.1 6.3 6.1 6.2 6.2 6.4 6.5 6.6 6.5 6.4 6.6 6.4 6.2 6.0 5.9 6.1 5.9 5.4 4.9 4.9 5.1
5.5 5.3 5.4 5.6 5.6 5.7 5.3 5.2 5.1 5.4 5.5 5.3 5.5 5.2 6.0 5.9 5.8 5.8 5.9 6.1 6.1 6.1 5.9 5.9 6.0 6.0 6.1 6.0 6.1 6.1 6.0 5.9 6.1 6.3 6.3 6.4 6.6 6.6 6.4 6.1 6.1 6.1 6.1 5.9 5.7 5.3 5.2 5.4 5.2
5.8 5.4 5.5 5.6 5.8 5.5 5.7 5.4 5.5 5.7 5.3 5.7 5.6 5.7 6.2 6.1 6.1 5.8 5.9 6.0 6.2 6.0 5.9 5.9 6.0 6.0 6.0 5.9 6.0 5.9 5.9 5.8 5.9 6.3 6.4 6.6 6.6 6.4 6.1 6.1 6.0 6.0 5.8 5.7 5.5 5.3 5.4 5.5 5.3
5.8 5.8 6.1 6.0 6.1 5.7 5.4 6.0 5.9 5.6 5.8 5.8 5.9 5.9 5.8 6.0 6.1 5.8 5.8 6.0 6.2 6.0 5.9 5.8 6.0 6.0 5.8 5.8 6.0 5.9 5.9 5.9 6.0 6.4 6.5 6.9 6.5 6.3 6.3 6.3 6.0 5.9 5.7 5.6 5.6 5.5 5.7 5.8 5.7
5.9 6.6 6.0 5.9 5.8 6.3 5.5 5.7 5.6 5.9 5.8 5.8 5.8 5.9 5.9 5.7 6.0 6.0 5.9 5.9 6.1 6.1 6.0 5.8 5.8 6.0 5.7 5.7 6.1 6.0 5.9 5.9 6.1 6.3 6.0 6.4 6.5 6.4 6.1 6.0 6.0 6.0 5.9 5.7 5.7 5.6 5.5 5.7 5.6
6.2 6.6 6.6 6.3 6.1 6.0 6.0 5.9 5.7 5.8 5.5 5.7 5.9 5.8 5.7 5.7 5.7 5.9 5.7 5.7 6.0 6.1 6.0 5.8 6.0 6.1 5.8 5.8 6.2 5.9 6.0 6.0 6.0 6.2 6.0 6.0 6.2 6.2 6.1 6.0 5.9 5.9 5.8 5.4 5.5 5.7 5.5 5.5 5.6
7.1 6.9 6.7 6.6 6.5 6.4 6.5 6.2 6.0 5.8 5.6 5.6 5.8 5.6 5.6 5.7 5.7 5.8 5.9 5.9 6.0 6.0 5.9 5.7 5.9 6.1 6.0 6.1 6.2 6.1 6.0 6.2 6.2 6.2 6.1 6.3 6.2 6.0 5.9 5.7 5.6 5.6 5.7 5.7 5.7 5.4 5.4 5.3 5.5
7.5 7.2 7.7 6.8 6.6 7.2 6.9 6.6 6.2 5.8 5.8 5.7 5.7 5.8 5.7 5.7 5.8 5.9 5.8 5.7 6.0 5.8 5.8 5.7 5.6 5.9 6.1 6.1 6.3 6.2 6.2 6.3 6.2 6.2 6.0 5.8 5.9 5.8 5.6 5.6 5.6 5.6 5.6 5.6 5.6 5.6 5.5 5.3 5.3
7.9 7.8 7.9 7.7 7.9 8.1 7.2 6.7 6.4 6.2 5.8 5.7 5.9 6.0 5.9 5.8 5.9 5.9 6.0 5.7 5.9 5.8 5.6 5.7 5.5 5.6 5.9 6.0 6.2 6.2 6.1 6.2 6.1 5.9 5.8 5.8 5.9 6.0 5.6 5.6 5.7 5.8 5.8 5.6 5.5 5.4 5.3 5.4 5.2
7.9 8.4 7.9 7.9 7.7 7.9 7.2 7.0 6.7 6.6 6.0 5.9 6.1 6.2 6.1 6.2 6.1 6.0 6.1 5.8 5.9 5.6 5.6 5.6 5.4 5.6 6.0 6.0 6.1 6.1 6.0 6.1 6.2 5.8 5.8 5.9 5.9 6.0 6.0 5.8 5.9 6.0 6.0 6.0 6.0 6.0 5.8 5.8 5.7
8.1 8.8 8.9 7.9 7.6 7.6 7.3 7.7 6.9 6.9 6.4 6.1 6.2 6.5 6.3 6.4 6.5 6.3 6.2 6.0 5.9 5.5 5.6 5.4 5.4 5.5 5.9 6.2 6.1 6.2 6.1 6.2 6.3 6.1 5.9 6.0 6.1 6.2 6.2 6.1 6.1 6.1 6.2 6.3 6.3 6.2 6.3 6.3 6.2
8.2 8.4 8.5 8.0 7.8 7.7 7.6 7.9 7.2 7.0 6.7 6.6 6.3 6.2 6.2 6.5 6.4 6.7 6.5 6.1 5.9 5.6 5.5 5.4 5.3 5.5 5.7 6.1 6.0 6.3 6.2 6.2 6.4 6.4 6.2 6.1 6.2 6.3 6.4 6.3 6.3 6.4 6.4 6.5 6.4 6.4 6.4 6.4 6.2
9.4 9.0 9.2 8.9 8.2 7.8 8.0 8.0 7.6 7.0 6.7 6.5 6.5 6.6 6.3 6.3 6.4 6.4 6.3 6.3 6.0 5.8 5.7 5.5 5.4 5.4 5.6 5.9 6.0 6.2 6.3 6.4 6.3 6.5 6.4 6.3 6.4 6.5 6.6 6.6 6.6 6.7 6.8 6.7 6.6 6.5 6.5 6.4 6.4
8.9 9.2 9.1 8.6 8.2 8.3 8.5 8.3 7.7 7.6 6.9 6.1 6.4 6.5 6.5 6.2 6.0 6.1 6.1 6.1 5.9 5.8 6.0 5.6 5.5 5.4 5.4 5.8 5.9 6.1 6.3 6.4 6.4 6.4 6.5 6.5 6.6 6.6 6.5 6.6 6.7 6.7 6.7 6.7 6.7 6.6 6.6 6.6 6.6
8.2 8.4 8.8 8.2 8.0 8.2 8.7 8.6 8.0 7.4 7.4 6.4 6.5 6.5 6.6 6.5 6.2 6.1 6.2 6.3 6.1 5.9 6.0 5.8 5.7 5.4 5.4 5.6 5.8 6.1 6.2 6.4 6.6 6.6 6.7 6.7 6.6 6.5 6.6 6.7 6.7 6.6 6.5 6.5 6.6 6.6 6.7 6.7 6.7
8.3 8.4 9.3 8.9 7.8 8.2 8.3 8.7 8.4 8.2 7.4 6.9 6.8 6.7 6.5 6.7 6.7 6.6 6.2 6.2 6.0 6.0 6.0 5.9 5.6 5.4 5.5 5.6 5.8 6.1 6.2 6.3 6.5 6.6 6.7 6.7 6.7 6.7 6.7 6.8 6.7 6.6 6.5 6.5 6.5 6.6 6.7 6.8 6.9
9.2 8.3 8.9 8.2 8.2 9.2 8.1 9.5 8.6 8.2 7.7 7.9 7.4 7.3 7.1 6.9 6.5 6.7 6.6 6.5 6.2 5.9 5.8 5.8 5.7 5.3 5.5 5.6 5.7 6.0 6.1 6.1 6.3 6.5 6.5 6.5 6.5 6.5 6.6 6.7 6.7 6.6 6.7 6.7 6.6 6.6 6.7 6.7 6.8
8.9 9.2 8.8 8.6 8.2 8.8 8.3 8.5 9.4 8.3 8.1 7.7 8.2 8.1 7.6 7.4 6.9 6.6 6.6 6.3 6.0 5.7 5.7 5.8 5.6 5.5 5.4 5.7 5.7 5.9 6.2 6.1 6.2 6.4 6.2 6.2 6.3 6.5 6.5 6.6 6.6 6.6 6.8 6.9 6.9 6.8 6.8 6.7 6.8
8.5 8.4 8.4 8.5 8.8 9.2 9.0 8.8 9.3 9.4 8.7 8.6 8.2 8.5 8.2 7.8 7.7 7.1 6.4 6.4 6.1 5.8 5.6 5.7 5.6 5.5 5.5 5.9 5.9 6.1 6.2 6.2 6.3 6.3 6.2 6.2 6.3 6.5 6.6 6.7 6.7 6.8 6.9 7.3 7.4 7.4 7.3 7.2 7.4
8.6 8.5 9.3 9.5 9.7 9.1 9.3 9.1 8.8 8.7 8.4 8.5 8.7 8.4 8.3 8.4 8.1 8.2 7.2 6.4 6.4 6.4 6.1 5.9 5.8 5.6 5.7 6.0 6.1 6.2 6.2 6.3 6.2 6.1 6.1 6.3 6.4 6.7 6.9 6.9 6.8 6.7 6.9 7.4 7.7 7.8 7.9 7.9 8.0
8.2 8.5 9.5 9.4 9.8 9.9 9.3 8.1 8.0 8.6 8.5 8.8 8.5 8.3 8.3 7.7 7.5 8.1 7.7 6.6 6.6 6.5 6.2 6.2 6.0 5.7 5.8 6.0 6.2 6.4 6.3 6.3 6.2 6.1 6.0 6.2 6.5 6.7 6.8 6.9 6.8 6.9 7.1 7.5 7.7 7.8 7.9 7.8 7.8
8.6 8.6 9.1 9.5 9.5 9.7 9.6 8.4 8.0 8.4 8.4 8.5 8.5 8.5 8.4 8.1 8.1 8.0 7.7 6.9 6.7 6.8 6.5 6.3 6.1 6.0 5.9 6.0 6.0 6.4 6.6 6.5 6.3 6.1 6.0 6.2 6.4 6.7 6.8 7.0 7.0 6.9 7.0 7.4 7.7 7.6 7.7 7.7 7.6
8.6 8.5 8.9 8.9 9.6 9.5 9.6 8.7 8.5 9.2 9.1 9.0 8.4 8.6 8.5 8.7 8.2 8.1 7.6 7.5 6.9 6.7 6.5 6.4 6.0 6.1 6.0 5.8 6.0 6.3 6.7 6.7 6.4 6.1 6.0 6.1 6.4 6.7 6.8 6.9 7.0 7.1 7.1 7.1 7.3 7.3 7.3 7.3 7.3
8.1 8.2 8.5 9.4 9.3 9.9 9.9 9.0 8.4 8.5 8.8 8.6 8.2 8.5 8.8 8.6 8.0 8.1 7.9 7.6 6.9 6.8 6.7 6.5 6.2 5.9 5.9 5.8 5.9 6.3 6.5 6.7 6.6 6.5 6.2 6.2 6.3 6.6 6.8 6.9 7.0 7.2 7.3 7.4 7.5 7.4 7.5 7.4 7.4
8.7 8.4 8.4 9.0 8.9 9.6 9.5 9.6 9.2 8.7 8.8 8.5 8.7 8.7 8.8 8.3 8.4 7.9 7.9 7.5 7.4 6.9 6.7 6.8 6.5 6.1 6.0 6.0 6.0 6.2 6.4 6.5 6.5 6.5 6.4 6.2 6.2 6.5 6.8 6.9 7.1 7.2 7.3 7.5 7.5 7.5 7.5 7.5 7.5
Wind_Speed
16 15 5 3 3 3 7 4 12 15 16 7 8 1 7 8 5 6 13 10 15 12 15 13 6 9 12 11 11 11 10 11 10 10 10 9 9 9 9 9 10 10 10 9 10 10 10 8 9
11 7 4 3 3 6 6 13 17 14 13 15 10 10 4 6 6 13 12 14 13 12 13 14 8 10 11 11 10 9 10 11 10 11 11 11 10 9 9 9 9 9 9 8 8 8 7 7 7
10 0 3 3 1 7 9 12 13 15 18 10 5 6 4 5 11 9 16 14 13 10 12 14 11 8 9 11 8 9 11 11 11 12 12 10 9 8 7 7 7 7 6 7 7 5 5 6 5
5 3 4 2 11 10 16 16 18 18 11 2 7 9 7 4 9 10 15 14 12 10 12 13 11 9 7 12 10 10 9 7 13 11 10 9 6 5 5 5 4 4 4 5 5 5 5 6 6
3 3 2 8 15 16 16 17 16 16 8 6 1 7 12 7 10 16 14 13 13 10 13 12 9 10 8 9 10 10 8 8 10 8 7 6 4 3 3 3 2 2 3 3 3 3 7 10 5
3 3 3 10 16 16 15 14 17 12 9 7 11 15 11 11 16 13 12 11 11 11 10 12 10 9 9 8 8 9 7 6 7 5 4 4 3 0 2 2 3 4 3 3 3 3 5 2 5
5 2 6 9 15 14 16 11 11 10 11 8 13 11 11 14 15 13 12 10 10 11 9 11 13 11 8 7 7 7 6 6 5 3 2 2 1 1 1 2 3 4 5 3 2 3 5 11 13
4 2 0 4 10 8 11 9 7 12 9 13 9 6 15 18 17 14 12 10 9 9 9 8 9 8 9 11 7 6 5 5 3 2 1 2 2 2 2 2 1 5 2 2 4 7 9 12 14
3 3 3 3 3 11 16 7 7 7 11 4 4 7 20 21 18 15 13 12 8 7 8 9 9 8 8 8 9 9 6 4 4 6 3 5 4 4 3 2 3 4 5 5 6 6 10 12 12
6 6 6 5 1 13 15 15 11 6 9 7 9 13 20 21 18 16 15 13 12 12 10 9 9 9 9 8 6 5 5 7 6 4 4 2 5 4 3 2 1 2 2 5 7 6 9 12 12
1 10 6 10 4 14 15 10 7 12 10 12 15 19 22 21 17 16 14 14 12 12 9 9 8 7 8 6 6 5 7 5 8 5 4 5 2 3 5 5 5 4 3 5 6 7 6 5 6
4 4 4 7 5 12 13 12 9 3 7 11 16 21 21 20 17 16 14 14 13 12 11 11 9 7 5 6 5 7 5 6 6 7 4 3 5 6 4 5 5 2 4 2 2 5 5 6 5
3 2 10 15 7 10 12 9 9 8 9 13 17 21 20 18 17 14 13 13 13 12 11 11 9 6 6 3 6 3 4 6 6 6 6 5 9 3 6 6 7 4 3 4 4 5 5 3 5
6 1 12 13 10 10 10 11 9 7 10 14 18 21 19 18 17 15 14 13 13 13 12 12 11 8 8 4 3 3 4 7 6 6 7 7 6 4 4 4 5 5 4 5 4 6 4 3 3
4 7 11 12 14 10 9 10 8 12 13 14 16 18 18 18 17 16 14 14 14 13 14 13 12 9 7 5 4 3 6 7 7 8 6 5 4 4 1 5 5 6 5 3 3 1 2 2 3
9 8 13 10 11 7 14 12 10 14 13 14 15 16 17 19 19 17 15 14 14 14 14 13 11 11 8 6 5 5 7 6 5 6 7 4 4 4 1 4 5 6 5 4 3 3 3 2 4
8 5 3 9 9 8 9 8 10 12 13 13 15 16 17 18 19 17 16 15 16 14 14 12 10 10 8 6 7 5 7 5 5 5 6 5 6 5 3 6 7 4 6 4 4 4 3 4 4
9 8 5 8 11 9 10 4 9 12 13 15 15 16 17 18 20 19 18 16 16 15 15 13 10 9 8 7 5 4 5 5 6 5 5 3 6 5 6 7 6 4 4 5 5 6 6 4 3
8 8 6 3 5 7 8 5 12 13 14 15 16 16 18 19 19 18 17 17 17 16 17 15 12 10 8 8 7 6 7 5 5 5 3 4 3 5 3 5 5 5 6 6 3 3 3 4 3
10 10 9 4 3 7 5 7 7 15 16 14 16 17 19 19 20 20 20 19 18 18 18 16 14 12 10 8 7 5 4 5 4 4 4 3 4 5 6 5 5 5 5 6 5 4 1 3 3
15 15 10 5 6 9 7 13 12 8 13 14 15 17 18 21 22 22 21 20 19 20 19 17 15 14 12 10 7 5 4 4 5 5 5 4 2 2 3 5 6 4 3 6 4 4 4 2 3
18 13 5 7 7 8 3 7 9 12 12 15 17 18 19 20 21 22 23 23 22 20 19 18 16 14 13 12 10 9 8 7 5 5 4 4 3 2 2 3 4 5 5 5 5 4 3 4 2
17 9 12 8 10 11 12 8 11 6 9 14 18 20 21 22 23 24 25 23 22 20 19 18 17 16 14 14 11 10 10 7 6 5 7 2 3 3 1 0 2 3 2 5 4 4 5 3 3
18 7 10 10 12 14 14 10 10 10 10 11 16 19 21 22 24 25 25 24 23 21 20 19 18 16 16 15 15 13 11 9 7 6 7 5 4 4 4 2 1 1 3 4 3 3 4 4 4
18 15 12 13 13 14 14 13 12 4 5 3 7 14 18 22 24 24 25 25 24 25 23 20 19 18 18 18 16 16 14 12 10 8 7 6 5 4 5 4 3 2 2 2 3 3 4 3 2
20 21 15 18 14 15 19 10 12 12 10 10 7 10 11 21 22 24 26 25 25 25 24 23 21 18 18 19 18 15 15 11 10 10 7 7 5 5 5 5 4 4 4 3 2 2 1 3 2
22 23 22 22 19 12 12 14 13 14 14 7 11 5 6 11 20 24 26 26 25 25 26 24 21 19 19 19 16 15 15 15 12 10 10 8 5 5 7 6 5 6 5 5 4 3 3 2 2
25 16 19 14 22 23 17 18 10 4 7 7 7 6 7 6 16 21 23 25 24 24 23 23 22 20 20 19 17 15 17 16 13 11 12 10 8 8 7 8 7 7 6 6 6 4 4 4 4
11 15 15 18 20 17 17 17 14 14 13 8 10 7 6 4 12 18 21 23 23 23 24 23 22 22 20 18 17 15 16 16 15 14 13 12 11 10 10 9 8 9 8 8 7 7 5 7 6
20 21 20 14 18 13 15 13 7 1 2 2 4 9 6 5 9 15 19 22 23 23 24 24 22 21 20 18 16 18 17 16 16 15 15 14 14 13 12 11 11 10 10 9 9 9 8 9 9
Wind_Direction
157 172 172 197 223 219 109 101 117 121 129 135 103 120 82 23 353 69 137 132 136 134 130 140 138 113 124 113 111 108 104 98 101 95 92 88 88 87 91 88 82 89 85 78 75 76 78 78 79
152 163 212 240 237 135 88 130 125 135 126 122 122 132 105 78 64 121 127 138 143 137 140 136 132 114 125 113 111 113 114 104 97 98 90 78 81 82 81 80 84 78 82 79 75 75 75 83 88
156 277 261 244 269 102 123 133 125 129 141 137 119 61 71 81 133 121 124 142 144 140 137 119 134 129 126 126 125 107 89 95 94 88 88 86 82 86 85 83 79 70 63 58 50 66 70 78 84
172 193 231 194 90 83 124 127 139 142 124 135 131 91 94 125 114 126 138 143 146 137 137 124 129 131 120 115 106 96 97 94 91 89 93 99 101 93 94 81 69 57 40 35 33 41 53 75 92
235 252 183 91 93 110 120 124 142 137 138 123 288 114 112 108 118 130 138 142 140 142 115 135 139 129 115 100 102 107 106 81 88 91 95 104 92 78 62 54 28 13 354 358 351 9 36 40 66
220 276 86 94 102 117 127 144 138 164 122 156 116 124 106 121 141 144 139 145 141 129 138 140 136 132 131 127 120 113 110 98 95 106 112 128 133 104 39 341 321 308 300 294 308 22 63 117 113
330 357 61 97 117 136 146 146 127 132 163 150 135 129 120 150 144 141 140 146 131 133 143 144 138 131 126 119 120 123 116 99 85 104 134 111 126 332 305 281 291 300 304 295 2 93 85 101 99
293 327 239 108 152 126 149 157 103 141 146 123 149 155 158 148 150 145 143 140 144 141 143 138 131 142 147 143 129 129 114 96 92 117 127 86 165 145 221 258 211 293 315 56 69 95 92 105 103
249 185 26 54 140 151 141 147 134 57 133 145 110 147 143 146 150 152 150 150 149 146 157 155 148 154 132 132 125 147 136 138 162 169 109 210 89 111 155 57 309 45 81 92 93 104 113 121 107
263 89 125 263 30 150 174 160 144 140 147 130 118 120 137 153 159 158 162 159 163 159 161 160 153 146 156 138 134 116 113 65 70 74 77 94 64 58 52 100 170 125 107 117 113 133 154 197 127
118 71 84 131 100 153 161 138 151 148 192 159 153 150 155 158 164 164 169 161 164 158 162 155 153 170 159 114 136 136 114 121 116 92 68 83 67 90 115 105 114 111 177 139 147 147 116 77 110
279 60 161 83 125 143 155 144 145 135 67 135 146 160 159 164 166 167 169 160 161 162 165 159 149 161 127 145 146 130 120 106 106 87 101 86 124 99 57 61 112 146 61 68 49 94 79 119 111
241 25 155 144 176 151 139 147 130 131 104 129 145 159 164 169 166 164 163 164 157 165 164 152 150 156 138 159 113 100 122 97 100 114 86 76 67 79 73 60 60 62 68 84 95 83 53 81 131
350 338 139 146 149 152 171 149 166 139 145 142 157 164 169 171 170 162 165 169 167 166 169 154 157 161 151 134 135 136 112 130 112 107 81 88 105 80 109 79 51 55 31 55 54 29 19 21 49
269 158 146 159 157 163 156 171 207 144 158 157 168 168 171 173 173 172 169 169 173 170 169 159 158 162 160 153 165 145 147 124 126 110 110 97 109 97 66 69 49 48 73 100 111 16 81 56 96
233 242 166 151 169 150 223 131 139 157 165 168 172 173 176 178 179 179 171 170 170 171 169 170 164 163 169 144 158 148 132 135 132 120 121 95 86 73 157 82 60 37 54 62 36 7 27 82 101
205 217 197 141 202 150 231 92 144 174 174 173 178 178 184 182 183 181 179 178 172 173 175 177 170 171 169 156 150 158 133 161 130 135 120 82 81 67 24 56 77 48 71 57 54 51 27 111 112
196 214 171 160 176 208 198 193 156 184 187 177 182 183 189 189 188 183 186 183 175 175 181 180 182 170 175 161 164 165 152 157 151 138 93 105 88 68 351 80 61 22 65 88 52 44 58 71 59
300 263 184 169 137 216 240 244 170 184 198 186 186 187 192 193 188 182 187 183 182 181 182 183 185 172 183 177 178 172 173 160 159 139 130 138 85 74 35 67 96 78 55 45 75 107 64 74 56
225 225 208 145 204 241 248 256 228 177 208 199 192 190 196 191 189 186 187 187 187 184 183 186 187 178 194 183 193 201 168 172 142 143 129 109 88 90 94 47 71 27 87 59 56 22 86 102 38
223 228 211 238 172 233 270 254 216 205 201 212 203 199 200 195 193 190 188 192 191 185 186 187 191 181 196 195 185 181 165 171 181 167 173 142 127 122 93 80 63 79 1 62 38 47 359 74 73
221 216 239 220 236 237 230 271 167 172 198 207 204 203 201 200 197 193 193 194 196 193 188 188 192 190 194 194 189 199 200 191 179 175 135 151 171 165 149 103 87 49 50 51 68 60 9 311 80
237 183 226 234 243 254 233 246 266 169 205 203 209 204 205 198 197 195 197 196 199 196 193 194 192 195 200 194 215 193 221 192 180 175 153 185 154 218 256 97 87 89 49 72 47 36 25 42 347
229 200 218 227 251 247 238 257 268 217 205 205 193 204 204 203 200 200 195 196 199 200 200 195 193 199 201 200 203 209 202 215 188 196 183 189 181 181 203 221 239 145 106 115 108 93 68 34 22
227 212 220 221 227 239 240 237 241 75 153 289 206 199 209 208 203 199 196 197 199 200 200 196 194 200 201 202 203 207 213 207 202 195 210 196 197 201 171 212 222 205 158 126 114 118 120 99 54
216 222 231 226 229 235 218 228 241 251 266 254 270 258 253 202 209 202 198 197 199 200 199 198 193 200 200 202 204 204 207 208 212 204 219 209 216 190 153 193 226 224 185 165 168 171 60 92 99
203 224 237 250 255 259 229 215 236 254 250 239 262 274 288 238 204 200 199 196 197 198 199 199 197 201 200 201 200 201 203 217 207 202 205 207 213 183 194 200 207 207 196 198 190 227 200 193 209
237 203 221 233 240 240 230 249 240 214 231 174 220 296 325 250 199 198 198 196 197 198 199 201 200 201 202 202 200 203 204 207 210 202 204 218 203 222 197 211 203 197 200 211 215 213 191 212 220
195 222 219 235 221 239 238 240 229 237 263 291 313 332 348 268 201 198 196 196 199 196 200 201 204 200 201 202 200 203 205 205 209 209 208 212 215 210 213 214 213 205 208 213 219 247 242 225 227
219 212 207 222 222 238 266 248 160 84 124 246 294 5 359 299 198 198 196 196 196 201 199 200 204 204 201 196 200 202 206 206 208 212 210 211 214 216 220 221 222 219 219 220 224 234 239 228 233